Regional Weather Roundup
Issued by NWS

Home | Current Version | Previous Version | Text Only | Print | Product List | Glossary On
Versions: 1 2 3 4 5 6 7 8 9 10 11 12 13 14 15 16 17 18 19 20 21 22 23 24 25 26 27 28 29 30 31 32 33 34 35 36 37 38 39 40 41 42 43 44 45 46 47 48 49 50
000
ASUS43 KMKX 030521
RWRWI

WISCONSIN REGIONAL WEATHER ROUNDUP
NATIONAL WEATHER SERVICE MILWAUKEE/SULLIVAN WI
1200 AM CDT SUN MAY 03 2015

NOTE: "FAIR" INDICATES FEW OR NO CLOUDS BELOW 12,000 FEET WITH NO
SIGNIFICANT WEATHER AND/OR OBSTRUCTIONS TO VISIBILITY.

WIZ001-002-006>008-014>016-023>028-030600-
NORTHWEST WISCONSIN

CITY           SKY/WX    TMP DP  RH WIND       PRES   REMARKS
SUPERIOR ARPT  MOCLDY    43  40  90 N3        29.74S
ASHLAND        PTCLDY    50  43  77 CALM      29.74F
HAYWARD        CLEAR     61  43  51 S8        29.77S
SIREN          CLEAR     62  42  48 S7        29.76S
CUMBERLAND     PTCLDY    61  46  59 S10       29.79S
RICE LAKE      PTCLDY    65  47  52 S9        29.81R
CHETEK         PTCLDY    65  49  56 S7        29.80S
LADYSMITH      CLEAR     63  48  59 S7        29.83S
EAU CLAIRE     CLEAR     66  49  54 S13       29.81S
MENOMONIE      CLEAR     67  49  53 S14G20    29.81S
NEW RICHMOND   CLEAR     66  48  51 SW13      29.79S
OSCEOLA        PTCLDY    67  48  50 S12       29.80R
$$

WIZ003>005-009-010-017-018-030600-
NORTH CENTRAL WISCONSIN

CITY           SKY/WX    TMP DP  RH WIND       PRES   REMARKS
MANITOWISH WTR MOCLDY    59  43  55 S5        29.82S
ARBOR VITAE    MOCLDY    60  43  54 S9        29.83S
WOODRUFF       MOCLDY    60  43  54 S9        29.83S
RHINELANDER    PTCLDY    63  43  48 SW9       29.86S
EAGLE RIVER    PTCLDY    60  39  46 SW5       29.84S
LAND O LAKES   PTCLDY    51  42  72 CALM      29.84S
PHILLIPS       CLEAR     62  46  55 S8        29.81F
TOMAHAWK       PTCLDY    60  45  56 CALM      29.85S
MEDFORD        CLEAR     62  48  60 S12       29.86S
MERRILL        CLEAR     64  47  54 SW12      29.86S
$$

WIZ029-030-035-036-043>047-030600-
CENTRAL WISCONSIN

CITY           SKY/WX    TMP DP  RH WIND       PRES   REMARKS
WAUSAU         CLEAR     64  45  49 SW10      29.85S
MOSINEE        CLEAR     59  43  55 S8        29.89R
MARSHFIELD     PTCLDY    62  48  60 S8        29.87S
STEVENS POINT  CLEAR     58  43  56 SW5       29.89S
WAUPACA        CLEAR     61  42  49 S3        29.89S
WAUTOMA        CLEAR     63  43  48 CALM      29.89F
WISC RAPIDS    CLEAR     62  46  55 SW6       29.89S
CAMP DOUGLAS   CLEAR     64  49  59 S9        29.88S
$$

WIZ011>013-019>022-031-037>040-048>050-030600-
NORTHEAST WISCONSIN

CITY           SKY/WX    TMP DP  RH WIND       PRES   REMARKS
ANTIGO         PTCLDY    59  43  54 SW10      29.87S
SHAWANO        CLEAR     65  42  43 CALM      29.87S
OCONTO         CLEAR     60  45  56 S3        29.86S
STURGEON BAY   CLEAR     55  37  50 S10       29.90S
GREEN BAY      CLEAR     59  45  59 S6        29.89R
MANITOWOC      CLEAR     48  41  76 SE5       29.92R
APPLETON       CLEAR     61  41  48 SW10      29.90S
CLINTONVILLE   CLEAR     61  41  48 SW7       29.87S
OSHKOSH        CLEAR     60  43  53 S8        29.90R
$$

WIZ032>034-041-042-053>061-030600-
SOUTHWEST WISCONSIN

CITY           SKY/WX    TMP DP  RH WIND       PRES   REMARKS
LA CROSSE      CLEAR     65  51  60 S10       29.86S
SPARTA         CLEAR     62  47  59 S5        29.89S
VIROQUA        CLEAR     59  49  68 SW9       29.90S
BOSCOBEL       PTCLDY    60  48  64 S5        29.91S
PRAIRIE DU CHI PTCLDY    63  49  60 CALM      29.90S
PLATTEVILLE    CLEAR     56  50  80 S10       29.94S
$$

WIZ056-057-062-063-064-067-068-030600-
SOUTH CENTRAL WISCONSIN

CITY           SKY/WX    TMP DP  RH WIND       PRES   REMARKS
REEDSBURG      CLEAR     61  49  65 S10       29.90F
BARABOO/DELLS  NOT AVBL
LONE ROCK      CLEAR     56  46  69 N3        29.92S
MINERAL POINT  CLEAR     59  48  67 S9        29.94S
MADISON        MOCLDY    63  45  51 SW5       29.92S
MIDDLETON      PTCLDY    63  44  50 SW3       29.93S
WATERTOWN      MOCLDY    55  44  66 S3        29.93S
MONROE         MOCLDY    61  48  63 SW12      29.94S
JANESVILLE     MOCLDY    59  39  47 CALM      29.94R
$$

WIZ051-052-058>065-066-070>072-030600-
SOUTHEAST WISCONSIN

CITY           SKY/WX    TMP DP  RH WIND       PRES   REMARKS
MILWAUKEE      PTCLDY    61  39  44 SW7       29.94S
WAUKESHA       PTCLDY    59  37  44 S3        29.96R
MILWAUKEE/TIMM PTCLDY    59  36  41 SW5       29.95S
RACINE         PTCLDY    53  39  59 SW7       29.96S
BURLINGTON     PTCLDY    53  39  59 SW5       29.95S
KENOSHA        PTCLDY    59  41  51 SW6       29.95S
FOND DU LAC    PTCLDY    62  42  47 SW7       29.91S
SHEBOYGAN      CLEAR     51  39  63 SW5       29.92S
WEST BEND      MOCLDY    59  37  44 S3        29.93S
JUNEAU         CLEAR     58  43  57 S8        29.94S
$$

LSZ147-162-030600-
LAKE SUPERIOR

STATION/POSITION TIME  TEMP    WIND        PRES    WAVE
                       AIR SEA DIR/SP/G            HT/PER
                 (UTC) (F)     (DEG/KT/KT) (MB)    (FT/S)
W MID LAKE BUOY  0450   46 35  210/  8/ 12 1007.5F   1
DEVILS ISLAND    0500   44      80/  9/ 10 1007.3F
PORT WING        0400   42      CALM  /  1 1007.8F
SAXON HARBOR     0400   54        CALM     1007.1F
$$

LMZ867-665-643>646-030600-
LAKE MICHIGAN

STATION/POSITION TIME  TEMP    WIND        PRES    WAVE
                       AIR SEA DIR/SP/G            HT/PER
                 (UTC) (F)     (DEG/KT/KT) (MB)    (FT/S)
CHAMBERS ISLAND  0400   59     170/  5/ 12 1011.2S
NORTHPORT PIER   0400   58     180/  5/ 14 1010.8F
SISTER BAY       0317   60     160/ 19/ 22   N/A
KEWAUNEE LAKESHO 0412   49     180/ 12/ 13 1011.6
SHEBOYGAN LAKESH 0500   52     190/  8/  9 1013.6R
PORT WASHINGTON  0440   51     170/  4/  5 1014.2R
ATWATER BUOY     0500   48     170/  6/  8 1015.0R
MILWAUKEE LAKESH 0500   62     240/  5/  6   N/A
KENOSHA   LAKESH 0500   60     210/  5/  6 1014.2R
$$

TC  - TEMPERATURE IN CELSIUS
VSB - VISIBILITY IN STATUTE MILES
WCI - WIND CHILL INDEX
HX  - HEAT INDEX




USA.gov is the U.S. government's official web portal to all federal, state and local government web resources and services.